TimeEDT,TemperatureF,Dew PointF,Humidity,Sea Level PressureIn,VisibilityMPH,Wind Direction,Wind SpeedMPH,Gust SpeedMPH,PrecipitationIn,Events,Conditions,WindDirDegrees,DateUTC
12:53 AM,44.1,43.0,96,29.70,7.0,NNE,12.7,-,0.02,Rain,Light Rain,30,2013-05-26 04:53:00
1:53 AM,44.1,43.0,96,29.67,10.0,NNE,11.5,-,0.01,,Overcast,20,2013-05-26 05:53:00
2:53 AM,43.0,43.0,100,29.66,7.0,North,12.7,-,0.00,,Overcast,10,2013-05-26 06:53:00
3:53 AM,44.1,42.1,93,29.65,9.0,NNE,15.0,-,0.01,,Overcast,20,2013-05-26 07:53:00
4:53 AM,43.0,42.1,97,29.65,9.0,North,11.5,-,N/A,,Overcast,360,2013-05-26 08:53:00
5:53 AM,44.1,43.0,96,29.66,10.0,North,11.5,-,0.00,,Overcast,360,2013-05-26 09:53:00
6:53 AM,44.1,43.0,96,29.67,4.0,North,13.8,-,0.01,Rain,Light Rain,350,2013-05-26 10:53:00
7:53 AM,44.1,43.0,96,29.68,5.0,NNW,12.7,-,0.00,Rain,Light Rain,340,2013-05-26 11:53:00
8:53 AM,45.0,44.1,97,29.70,5.0,NNW,15.0,19.6,0.02,Rain,Light Rain,340,2013-05-26 12:53:00
9:53 AM,46.0,45.0,96,29.71,5.0,NNW,12.7,20.7,0.01,Rain,Light Rain,340,2013-05-26 13:53:00
10:32 AM,46.4,44.6,93,29.71,10.0,NNW,11.5,20.7,0.01,Rain,Light Rain,330,2013-05-26 14:32:00
10:53 AM,46.9,44.1,90,29.73,10.0,NNW,10.4,24.2,0.01,Rain,Light Rain,330,2013-05-26 14:53:00
11:45 AM,46.4,44.6,93,29.73,9.0,NW,11.5,-,0.01,Rain,Light Rain,310,2013-05-26 15:45:00
11:53 AM,46.9,44.1,90,29.74,10.0,NW,12.7,20.7,0.01,Rain,Light Rain,320,2013-05-26 15:53:00
12:26 PM,48.2,44.6,87,29.74,10.0,WNW,10.4,-,0.01,Rain,Light Rain,300,2013-05-26 16:26:00
12:53 PM,48.9,46.0,90,29.75,10.0,NW,11.5,-,0.01,Rain,Light Rain,320,2013-05-26 16:53:00
1:06 PM,50.0,44.6,82,29.75,10.0,NW,11.5,-,0.00,Rain,Light Rain,320,2013-05-26 17:06:00
1:53 PM,50.0,43.0,77,29.77,10.0,NNW,11.5,23.0,0.00,,Overcast,330,2013-05-26 17:53:00
2:46 PM,51.8,44.6,76,29.78,10.0,NW,12.7,18.4,0.00,Rain,Light Rain,320,2013-05-26 18:46:00
2:53 PM,51.1,43.0,74,29.79,10.0,NW,13.8,20.7,0.00,Rain,Light Rain,310,2013-05-26 18:53:00
3:53 PM,52.0,42.1,69,29.80,10.0,NW,8.1,16.1,0.00,,Overcast,320,2013-05-26 19:53:00
4:53 PM,53.1,39.0,59,29.82,10.0,NW,11.5,28.8,N/A,,Overcast,320,2013-05-26 20:53:00
5:53 PM,53.1,39.0,59,29.85,10.0,NW,11.5,19.6,N/A,,Overcast,310,2013-05-26 21:53:00
6:53 PM,51.1,37.9,61,29.89,10.0,NW,12.7,25.3,N/A,,Overcast,320,2013-05-26 22:53:00
7:53 PM,50.0,37.9,63,29.91,10.0,NW,11.5,-,N/A,,Overcast,320,2013-05-26 23:53:00
8:53 PM,48.0,39.0,71,29.93,10.0,WNW,8.1,-,N/A,,Overcast,290,2013-05-27 00:53:00
9:53 PM,46.9,37.9,71,29.96,10.0,West,6.9,-,N/A,,Partly Cloudy,280,2013-05-27 01:53:00
10:53 PM,45.0,37.9,76,29.96,10.0,Variable,5.8,-,N/A,,Scattered Clouds,0,2013-05-27 02:53:00
11:53 PM,44.1,37.0,76,29.96,10.0,West,5.8,-,N/A,,Clear,280,2013-05-27 03:53:00